ANA777 RJTT-RJCC

Flight info

Callsign ANA777
Flight time N/A
Altitude 37000
Route AGRIS Y11 SAMBO Y119 OHMAR Y13 SIRAO Y139 NAVER
Aircraft B77W/H-SDE1E2E3FGHIJ2J3J4J5M1RWXY/LB1D1

Departure

Time N/A
Airport Tokyo Haneda International Airport (RJTT)

Arrival

Time 2026-04-30 18:45
Airport New Chitose Airport (RJCC)
Time Latitude Longitude Altitude Speed Heading
2026-04-30 17:39 41.14769 140.98259 37072 ft 502 kts 347°
2026-04-30 17:41 41.42821 141.04585 36899 ft 540 kts 11°
2026-04-30 17:42 41.49888 141.08145 35380 ft 542 kts 11°
2026-04-30 17:42 41.60119 141.13209 32778 ft 495 kts 12°
2026-04-30 17:43 41.66359 141.16295 31166 ft 479 kts 12°
2026-04-30 17:44 41.76203 141.21199 28889 ft 512 kts 15°
2026-04-30 17:44 41.85955 141.26164 27047 ft 492 kts 15°
2026-04-30 17:46 42.00703 141.36653 24111 ft 479 kts 40°
2026-04-30 17:47 42.10094 141.48903 21663 ft 460 kts 42°
2026-04-30 17:48 42.20299 141.58241 19423 ft 435 kts 25°
2026-04-30 17:48 42.28247 141.63910 17675 ft 426 kts 27°
2026-04-30 17:49 42.38442 141.71516 15466 ft 411 kts 28°
2026-04-30 17:50 42.48300 141.78908 13267 ft 400 kts 28°
2026-04-30 17:51 42.55404 141.84255 12004 ft 383 kts 28°
2026-04-30 17:52 42.62648 141.86534 10947 ft 350 kts 354°
2026-04-30 17:53 42.74306 141.85300 9623 ft 318 kts 354°
2026-04-30 17:54 42.82490 141.84492 8360 ft 276 kts 350°
2026-04-30 17:55 42.89785 141.82163 7136 ft 271 kts 344°
2026-04-30 17:56 42.96934 141.79868 5326 ft 252 kts 344°
2026-04-30 17:57 43.01659 141.77428 3465 ft 240 kts 316°
2026-04-30 17:58 43.03585 141.71806 2984 ft 206 kts 251°
2026-04-30 17:59 43.01019 141.66681 2982 ft 159 kts 227°
2026-04-30 18:00 42.96438 141.65640 3005 ft 172 kts 173°
2026-04-30 18:00 42.93412 141.66231 2982 ft 160 kts 175°
2026-04-30 18:01 42.91166 141.66629 2582 ft 159 kts 174°
2026-04-30 18:02 42.88263 141.67144 2032 ft 133 kts 174°
2026-04-30 18:02 42.85531 141.67629 1462 ft 134 kts 173°
2026-04-30 18:03 42.82719 141.68136 843 ft 136 kts 172°
2026-04-30 18:04 42.79872 141.68636 303 ft 140 kts 174°
2026-04-30 18:05 42.75509 141.69339 1626 ft 144 kts 174°
2026-04-30 18:06 42.70932 141.70691 1582 ft 197 kts 158°
2026-04-30 18:07 42.66919 141.77171 3930 ft 239 kts 133°
2026-04-30 18:08 42.63658 141.82511 4986 ft 252 kts 133°
2026-04-30 18:09 42.58752 141.88602 4999 ft 233 kts 185°
2026-04-30 18:10 42.55982 141.82062 4997 ft 243 kts 295°
2026-04-30 18:11 42.62308 141.79502 5002 ft 261 kts 356°
2026-04-30 18:11 42.67656 141.79445 4981 ft 254 kts 356°
2026-04-30 18:12 42.72982 141.79356 4989 ft 256 kts 356°
2026-04-30 18:13 42.76559 141.79284 4982 ft 257 kts 356°
2026-04-30 18:13 42.81310 141.79192 4985 ft 255 kts 356°
2026-04-30 18:14 42.85440 141.79108 4981 ft 252 kts 356°
2026-04-30 18:15 42.90589 141.78596 4348 ft 246 kts 347°
2026-04-30 18:15 42.95858 141.78310 3418 ft 252 kts 357°
2026-04-30 18:16 42.99346 141.78314 3025 ft 245 kts
2026-04-30 18:16 43.02374 141.77101 3001 ft 219 kts 314°
2026-04-30 18:17 43.03467 141.75757 2966 ft 203 kts 312°
2026-04-30 18:17 43.04126 141.74193 3021 ft 189 kts 275°
2026-04-30 18:17 43.03534 141.70898 2965 ft 175 kts 230°
2026-04-30 18:18 43.02759 141.69636 3007 ft 176 kts 229°
2026-04-30 18:18 43.01975 141.68330 3000 ft 179 kts 229°
2026-04-30 18:18 43.01185 141.67010 3008 ft 181 kts 228°
2026-04-30 18:18 43.00237 141.65976 2966 ft 173 kts 195°
2026-04-30 18:19 42.99049 141.65818 3012 ft 174 kts 184°
2026-04-30 18:19 42.97813 141.65809 2988 ft 179 kts 182°
2026-04-30 18:19 42.96567 141.65819 2995 ft 179 kts 180°
2026-04-30 18:19 42.95321 141.65930 2993 ft 179 kts 176°
2026-04-30 18:20 42.94097 141.66117 2975 ft 172 kts 175°
2026-04-30 18:20 42.92966 141.66314 2951 ft 157 kts 175°
2026-04-30 18:20 42.91909 141.66501 2758 ft 150 kts 174°
2026-04-30 18:20 42.90904 141.66676 2539 ft 141 kts 174°
2026-04-30 18:21 42.89964 141.66843 2346 ft 132 kts 174°
2026-04-30 18:21 42.89033 141.67007 2178 ft 137 kts 174°
2026-04-30 18:21 42.88077 141.67178 1994 ft 139 kts 173°
2026-04-30 18:21 42.87136 141.67346 1781 ft 133 kts 173°
2026-04-30 18:22 42.86208 141.67510 1608 ft 136 kts 173°
2026-04-30 18:22 42.84321 141.67844 1198 ft 137 kts 173°
2026-04-30 18:22 42.83381 141.68009 1019 ft 137 kts 173°
2026-04-30 18:23 42.82442 141.68175 825 ft 137 kts 173°
2026-04-30 18:23 42.81483 141.68349 665 ft 140 kts 173°
2026-04-30 18:23 42.80515 141.68540 459 ft 140 kts 173°
2026-04-30 18:23 42.79565 141.68690 239 ft 136 kts 175°
2026-04-30 18:24 42.77650 141.69027 277 ft 159 kts 174°
2026-04-30 18:24 42.76540 141.69194 1725 ft 161 kts 174°
2026-04-30 18:24 42.75475 141.69346 3391 ft 170 kts 176°
2026-04-30 18:25 42.74135 141.69514 4378 ft 217 kts 178°
2026-04-30 18:25 42.70744 141.70034 6712 ft 280 kts 165°
2026-04-30 18:25 42.68957 141.71492 5550 ft 325 kts 138°
2026-04-30 18:26 42.66619 141.76525 3409 ft 320 kts 100°
2026-04-30 18:26 42.66852 141.79373 3145 ft 294 kts 68°
2026-04-30 18:26 42.68055 141.81417 2992 ft 268 kts 32°
2026-04-30 18:27 42.71595 141.82388 3014 ft 266 kts
2026-04-30 18:27 42.73411 141.82786 2992 ft 262 kts
2026-04-30 18:28 42.76927 141.83521 2979 ft 252 kts
2026-04-30 18:28 42.78663 141.83864 2991 ft 252 kts
2026-04-30 18:28 42.82151 141.84493 2970 ft 251 kts 359°
2026-04-30 18:29 42.83845 141.84193 2992 ft 241 kts 345°
2026-04-30 18:29 42.88371 141.82648 2971 ft 210 kts 343°
2026-04-30 18:30 42.91142 141.81731 2980 ft 202 kts 344°
2026-04-30 18:30 42.93868 141.80845 2998 ft 203 kts 343°
2026-04-30 18:31 42.95250 141.80400 2982 ft 204 kts 344°
2026-04-30 18:31 42.97986 141.79535 3023 ft 193 kts 345°
2026-04-30 18:32 43.00433 141.78903 2966 ft 171 kts 350°
2026-04-30 18:32 43.01662 141.78689 3018 ft 185 kts 350°
2026-04-30 18:32 43.04217 141.78224 2985 ft 182 kts 350°
2026-04-30 18:33 43.05453 141.77997 2959 ft 178 kts 350°
2026-04-30 18:33 43.07932 141.77546 3006 ft 182 kts 350°
2026-04-30 18:33 43.09181 141.77324 2980 ft 179 kts 350°
2026-04-30 18:34 43.10395 141.77111 2985 ft 179 kts 349°
2026-04-30 18:34 43.11914 141.74973 2969 ft 175 kts 257°
2026-04-30 18:34 43.11315 141.73724 3015 ft 159 kts 210°
2026-04-30 18:35 43.10358 141.73036 2996 ft 154 kts 210°
2026-04-30 18:35 43.09427 141.72280 2995 ft 156 kts 210°
2026-04-30 18:35 43.08480 141.71522 2991 ft 159 kts 209°
2026-04-30 18:36 43.06548 141.70017 3000 ft 160 kts 208°
2026-04-30 18:36 43.05586 141.69284 2989 ft 158 kts 209°
2026-04-30 18:36 43.03697 141.67853 2972 ft 154 kts 208°
2026-04-30 18:37 43.02767 141.67148 2979 ft 152 kts 208°
2026-04-30 18:37 43.01843 141.66451 2991 ft 152 kts 208°
2026-04-30 18:37 43.00912 141.65749 2993 ft 153 kts 208°
2026-04-30 18:37 42.99915 141.65341 2999 ft 149 kts 184°
2026-04-30 18:38 42.98864 141.65383 2994 ft 154 kts 179°
2026-04-30 18:38 42.97786 141.65501 3001 ft 157 kts 176°
2026-04-30 18:38 42.96698 141.65663 2985 ft 157 kts 175°
2026-04-30 18:38 42.95623 141.65841 2988 ft 154 kts 175°
2026-04-30 18:39 42.94560 141.66026 2987 ft 154 kts 175°
2026-04-30 18:39 42.93502 141.66217 2991 ft 153 kts 175°
2026-04-30 18:39 42.92430 141.66407 2844 ft 158 kts 174°
2026-04-30 18:39 42.91340 141.66600 2626 ft 161 kts 174°
2026-04-30 18:40 42.90210 141.66797 2423 ft 162 kts 174°
2026-04-30 18:40 42.89135 141.66989 2183 ft 147 kts 173°
2026-04-30 18:40 42.88181 141.67160 1995 ft 130 kts 173°
2026-04-30 18:40 42.87320 141.67314 1838 ft 125 kts 173°
2026-04-30 18:41 42.86439 141.67469 1678 ft 130 kts 173°
2026-04-30 18:41 42.85539 141.67628 1474 ft 130 kts 173°
2026-04-30 18:41 42.84642 141.67788 1290 ft 131 kts 173°
2026-04-30 18:41 42.83735 141.67948 1083 ft 133 kts 172°
2026-04-30 18:42 42.82819 141.68115 784 ft 132 kts 173°
2026-04-30 18:42 42.80997 141.68428 527 ft 134 kts 174°
2026-04-30 18:42 42.80062 141.68588 324 ft 136 kts 173°
2026-04-30 18:45 42.77264 141.68863 88 ft 8 kts 353°
2026-04-30 18:45 42.77325 141.68851 85 ft 9 kts 352°
2026-04-30 18:45 42.77391 141.68838 87 ft 10 kts 352°
2026-04-30 18:46 42.77462 141.68826 88 ft 11 kts 353°
2026-04-30 18:46 42.77537 141.68812 87 ft 11 kts 353°
2026-04-30 18:46 42.77642 141.68795 85 ft 20 kts 353°
2026-04-30 18:46 42.77797 141.68767 87 ft 25 kts 353°
2026-04-30 18:47 42.77974 141.68703 89 ft 28 kts 321°
2026-04-30 18:47 42.78104 141.68531 87 ft 26 kts 341°
2026-04-30 18:47 42.78288 141.68495 87 ft 27 kts 353°
2026-04-30 18:47 42.78473 141.68463 88 ft 27 kts 352°
2026-04-30 18:48 42.78655 141.68430 88 ft 23 kts 352°
2026-04-30 18:48 42.78759 141.68411 88 ft 8 kts 351°
2026-04-30 18:48 42.78795 141.68363 88 ft 8 kts 284°
2026-04-30 18:48 42.78795 141.68293 87 ft 0 kts 263°